Regional Weather Roundup
Issued by NWS

Home | Current Version | Previous Version | Graphics & Text | Print | Product List | Glossary On
Versions: 1 2 3 4 5 6 7 8 9 10 11 12 13 14 15 16 17 18 19 20 21 22 23 24 25 26 27 28 29 30 31 32 33 34 35 36 37 38 39 40 41 42 43 44 45 46 47 48 49 50
000
ASUS43 KDMX 292207
RWRIA

WEATHER ROUNDUP FOR IOWA
NATIONAL WEATHER SERVICE DES MOINES IA
500 PM CDT MON SEP 29 2014

NOTE: "FAIR" INDICATES FEW OR NO CLOUDS BELOW 12,000 FEET WITH NO
SIGNIFICANT WEATHER AND/OR OBSTRUCTIONS TO VISIBILITY.

* - THESE STATIONS ARE NOT NWS STATIONS...THUS NOT UNDER NWS
QUALITY CONTROL.  THEY ALSO DO NOT REPORT WEATHER SUCH
AS PRECIPITATION OR FOG.

IAZ001>003-012>014-020>022-031>034-043>046-292300-
   NORTHWEST IOWA

CITY           SKY/WX    TMP DP  RH WIND       PRES   REMARKS
CARROLL *      MOSUNNY   75  63  64 VRB6G12   29.99F
CHEROKEE *     SUNNY     70  63  78 E12       30.01F
DENISON *      MOSUNNY   73  63  68 NE8       29.97F
LE MARS *      SUNNY     77  63  61 E9        29.99F
ORANGE CITY *  SUNNY     73  59  60 E9        30.01F
SHELDON *      PTSUNNY   68  59  73 NE9       30.02F
SIOUX CITY     SUNNY     79  64  60 E12       29.97S HX  81
SPENCER        MOSUNNY   67  57  70 NE10      30.04F
STORM LAKE *   SUNNY     68  61  77 NE12      30.03F
$$

IAZ055>058-069>071-079>083-090>094-292300-
   SOUTHWEST IOWA

CITY           SKY/WX    TMP DP  RH WIND       PRES   REMARKS
ATLANTIC *     MOSUNNY   82  57  42 S8        29.96F HX  82
AUDUBON *      MOSUNNY   79  61  53 NE6       29.99F HX  80
CLARINDA *     SUNNY     81  55  41 CALM      29.98F HAZE    HX  80
COUNCIL BLFS * SUNNY     82  59  44 S7        29.96F HX  82
CRESTON *      CLOUDY    82  57  42 CALM      29.99F HX  82
HARLAN  *      CLOUDY    84  57  39 CALM      30.00F HX  83
LAMONI         SUNNY     81  57  43 S6        29.99F HX  81
RED OAK *      SUNNY     82  57  42 S7        29.97F HAZE    HX  82
SHENANDOAH *   SUNNY     84  55  37 S9        29.97F HX  83
$$

IAZ047>049-059>061-072>074-084-292300-
   CENTRAL IOWA

CITY           SKY/WX    TMP DP  RH WIND       PRES   REMARKS
AMES           PTSUNNY   79  64  60 N9        29.97F HX  81
ANKENY *       PTSUNNY   81  63  54 CALM      29.97F HX  82
CHARITON *     SUNNY     81  59  47 W6        29.98F HX  81
DES MOINES     PTSUNNY   80  59  48 NE5       29.97F HX  81
GRINNELL*      PTSUNNY   81  59  47 W7        29.98S HX  81
KNOXVILLE *    PTSUNNY   81  59  47 SW6       29.96F HX  81
MARSHALLTOWN   MOSUNNY   80  61  52 W7        29.96F HX  81
PELLA *        SUNNY     82  59  44 NW9       29.98F HX  82
PERRY *          N/A     81  59  47 CALM      29.98S HX  81
$$

IAZ004>006-015-016-023>025-035-036-292300-
   NORTH CENTRAL IOWA

CITY           SKY/WX    TMP DP  RH WIND       PRES   REMARKS
ALGONA *       CLOUDY    64  59  82 N9        30.05S
CLARION *      CLOUDY    66  61  82 N10       30.02F
ESTHERVILLE    CLOUDY    63  56  78 NE9       30.05F
FORT DODGE *   CLOUDY    66  61  82 N5        30.03S
MASON CITY     CLOUDY    63  57  81 N13       30.05F
FOREST CITY *  CLOUDY    63  57  82 NE8       30.04S
IOWA FALLS *     N/A     75  61  60 N10       30.01S
$$

IAZ007>011-017>019-026>030-037>042-050>054-066-292300-
   NORTHEAST IOWA

CITY           SKY/WX    TMP DP  RH WIND       PRES   REMARKS
CEDAR RAPIDS   MOSUNNY   81  61  50 W8        29.95F HX  81
CHARLES CITY * MOSUNNY   66  57  72 N10       30.02F
CLINTON *      SUNNY     81  55  41 NW6       29.97F HX  80
DECORAH *      PTSUNNY   64  55  72 N12G18    30.02R
MONTICELLO *   MOSUNNY   82  57  42 W8        29.94F HX  82
OELWEIN *      SUNNY     72  61  68 N16       29.99R
WATERLOO       SUNNY     76  61  59 N15       29.96R
$$

IAZ064-065-067-068-078-292300-
   EAST CENTRAL IOWA

CITY           SKY/WX    TMP DP  RH WIND       PRES   REMARKS
IOWA CITY      SUNNY     82  60  47 W8        29.96F HX  82
MT. PLEASANT * SUNNY     84  48  28 W5        29.97S HX  82
MUSCATINE *    SUNNY     84  57  39 W7        29.95F HX  83
$$

IAZ062-063-075>077-085>089-095>099-292300-
   SOUTHEAST IOWA

CITY           SKY/WX    TMP DP  RH WIND       PRES   REMARKS
BURLINGTON     SUNNY     83  57  41 W7        29.96F HX  82
FAIRFIELD *    SUNNY     82  55  39 W8        29.97S HX  82
FORT MADISON * SUNNY     84  54  34 SW6       29.97F HX  83
KEOKUK *       SUNNY     81  59  47 W7        29.96F HX  81
OSKALOOSA *      N/A     82  59  44 NW6       29.97F HX  82
CENTERVILLE *  SUNNY     82  57  42 W3        30.00S HX  82
OTTUMWA        SUNNY     81  58  45 W7        29.97F HX  81
WASHINGTON *   SUNNY     84  57  39 W7        29.96F HX  83
$$

ABBREVIATIONS USED IN REMARKS
   TC - TEMPERATURES IN CELSIUS
  WCI - WIND CHILL INDEX
   HX - HEAT INDEX
  VSB - VISIBILITY
$$



USA.gov is the U.S. government's official web portal to all federal, state and local government web resources and services.